Weather History for Grand Forks, ND

Change the Weather History Date:

Thursday, March 13, 2014

  Actual Average Record
Temperature  
Mean Temperature 34 °F 23 °F  
Max Temperature 48 °F 32 °F 59 °F (2012)
Min Temperature 21 °F 15 °F -15 °F (1956)
Degree Days  
Heating Degree Days 30 42  
Month to date heating degree days 581  
Since 1 July heating degree days 7731  
Cooling Degree Days 0 0  
Month to date cooling degree days 0  
Year to date cooling degree days 0  
Moisture  
Dew Point 29 °F    
Average Humidity 78    
Maximum Humidity 92    
Minimum Humidity 58    
Precipitation  
Precipitation 0.00 in 0.03 in 0.12 in (2013)
Month to date precipitation 0.39  
Year to date precipitation 1.46  
Snow  
Snow 0.00 in - - ()
Month to date snowfall 3.8  
Since 1 July snowfall 41.0  
Snow Depth -    
Sea Level Pressure  
Sea Level Pressure 29.57 in    
Wind  
Wind Speed 10 mph (WSW)    
Max Wind Speed 22 mph    
Max Gust Speed 24 mph    
Visibility 10 miles    
Events      
T = Trace of Precipitation, MM = Missing Value Source: NWS Daily Summary

Daily Weather History Graph

Daily Weather History Graph

Search for Another Location

Airport:

Trip Planner

Search our weather history database for the weather conditions in past years. The results will help you decide how hot, cold, wet, or windy it might be!

Date:

Astronomy

Mar. 13, 2014 Rise Set
Actual Time 7:45 AM CDT 7:31 PM CDT
Civil Twilight 7:14 AM CDT 8:02 PM CDT
Nautical Twilight 6:38 AM CDT 8:38 PM CDT
Astronomical Twilight 6:02 AM CDT 9:15 PM CDT
Moon 4:49 PM CDT (3/13) 6:03 AM CDT (3/13)
Length of Visible Light 12h 47m
Length of Day
11h 45m
Waxing Gibbous, 91% of the Moon is Illuminated
Mar 13
Waxing Gibbous
Mar 16
Full
Mar 23
Last Quarter
Mar 30
New
Apr 7
First Quarter

Hourly Weather History & Observations

Time (CDT) Temp. Windchill Dew Point Humidity Pressure Visibility Wind Dir Wind Speed Gust Speed Precip Events Conditions
12:53 AM 27.0 °F 18.7 °F 25.0 °F 92% 29.78 in 10.0 mi SW 8.1 mph - N/A   Clear
1:53 AM 25.0 °F 17.1 °F 23.0 °F 92% 29.76 in 10.0 mi SW 6.9 mph - N/A   Clear
2:53 AM 21.9 °F 12.5 °F 19.9 °F 92% 29.74 in 10.0 mi SSW 8.1 mph - N/A   Clear
3:53 AM 25.0 °F 16.3 °F 23.0 °F 92% 29.73 in 10.0 mi SW 8.1 mph - N/A   Clear
4:53 AM 27.0 °F 18.0 °F 24.1 °F 89% 29.71 in 10.0 mi SW 9.2 mph - N/A   Clear
5:53 AM 24.1 °F 15.2 °F 21.0 °F 88% 29.68 in 10.0 mi SSW 8.1 mph - N/A   Clear
6:53 AM 26.1 °F 16.2 °F 23.0 °F 88% 29.65 in 10.0 mi South 10.4 mph - N/A   Clear
7:53 AM 26.1 °F 16.8 °F 23.0 °F 88% 29.64 in 10.0 mi SSW 9.2 mph - N/A   Partly Cloudy
8:53 AM 33.1 °F 24.4 °F 28.0 °F 82% 29.60 in 10.0 mi SW 11.5 mph - N/A   Partly Cloudy
9:53 AM 36.0 °F 27.5 °F 30.0 °F 79% 29.57 in 10.0 mi SW 12.7 mph - N/A   Scattered Clouds
10:53 AM 39.2 °F 31.6 °F 30.2 °F 70% 29.53 in 10.0 mi WSW 12.7 mph - N/A   Partly Cloudy
11:53 AM 41.0 °F 35.2 °F 32.0 °F 70% 29.51 in 10.0 mi SW 9.2 mph - N/A   Partly Cloudy
12:53 PM 44.1 °F 40.8 °F 34.0 °F 68% 29.51 in 10.0 mi SSW 5.8 mph - N/A   Partly Cloudy
1:53 PM 46.0 °F 40.2 °F 35.1 °F 66% 29.49 in 10.0 mi West 12.7 mph - N/A   Partly Cloudy
2:53 PM 46.9 °F - 34.0 °F 61% 29.45 in 10.0 mi WSW 16.1 mph - N/A   Partly Cloudy
3:53 PM 48.0 °F - 34.0 °F 58% 29.45 in 10.0 mi West 19.6 mph 24.2 mph N/A   Partly Cloudy
4:53 PM 48.2 °F - 35.6 °F 62% 29.42 in 10.0 mi West 18.4 mph - N/A   Scattered Clouds
5:53 PM 46.4 °F 41.5 °F 35.6 °F 66% 29.42 in 10.0 mi WNW 10.4 mph - N/A   Scattered Clouds
6:53 PM 43.0 °F 34.8 °F 34.0 °F 71% 29.45 in 10.0 mi WNW 18.4 mph - N/A   Scattered Clouds
7:53 PM 37.9 °F 30.0 °F 33.1 °F 83% 29.48 in 10.0 mi West 12.7 mph - N/A   Mostly Cloudy
8:53 PM 36.0 °F 29.6 °F 32.0 °F 86% 29.49 in 10.0 mi WNW 8.1 mph - N/A   Mostly Cloudy
9:53 PM 36.0 °F 27.5 °F 30.9 °F 82% 29.50 in 10.0 mi West 12.7 mph - N/A   Mostly Cloudy
10:53 PM 37.0 °F 26.2 °F 30.0 °F 76% 29.50 in 10.0 mi WNW 21.9 mph - N/A   Mostly Cloudy
11:53 PM 35.1 °F 25.2 °F 30.0 °F 82% 29.51 in 10.0 mi West 16.1 mph - N/A   Clear